MIDAS 4 DEB, 194

Orbit data source: Space-Track

MIDAS 4 DEB, 194 is space debris in LEO originally from a launch on Sat, 21 Oct 1961 UTC via an ATLAS AGENA B launch vehicle from the Air Force Western Test Range (AFWTR). Debris objects in space refer to the collection of defunct objects orbiting the Earth. Examples of debris include non-operational satellites, rocket bodies, and fragments generated from explosions, collisions, or faulty payload assembly.

Loading next visibility...
Identifier
194, 1961-028C
Orbit
LEO
Country
Flag of USUS
Related business
Manufacturer
MIT-LL
Mission
Spacecraft
Bus & Motor
WESTFORD, Unknown motor
Mass
30 kg wet, 30 kg dry
Launch date (UTC)
1961-10-21 (65 years ago)
Launch vehicle
ATLAS AGENA B
Launch site
Air Force Western Test Range (AFWTR)
Object type
Payload
Rocket body
Debris
Shape & HBR
Unknown
Radar Cross Section
Medium (>0.1 m² and <1 m²)

Expand to show TLE details & history
Last TLE update: 16 hours ago

TLE from 16 hours ago
0 MIDAS 4 DEB
1   194U 61028C   26129.31042069  .00000073  00000-0  31470-1 0  9992
2   194  95.8510 240.6577 0418598 219.4338 137.5338  8.70115381 49759
Epoch: 2026-05-09T07:27Z
TLE epoch observation values (Epoch: 2026-05-09T07:27:00.347Z)
Latitude
0.00002°
Longitude
-98.22343°
Altitude
3,925.058 km
Speed
6.121 km/s
True Right ascension
16h 02m 37s
True Declination
0° 00' 00"
Sunlit
Object was in full shadow at epoch
Visualization orbit readout
Latitude
Unknown
Longitude
Unknown
Altitude
Unknown
Speed
Unknown
Apparent Right ascension
Unknown
Apparent Declination
Unknown
Sunlit
N/A
Visualization observer readout
Local Sidereal Time
08:00:21
Azimuth
Unknown
Elevation
Unknown
Doppler factor
Unknown
Orbital elements
Apogee altitude
4,022.669 km
Perigee altitude
3,186.903 km
Semi-major axis
9,982.923 km
Eccentricity
0.04186
Inclination
95.851°
RAAN
240.6577°
Arg. of periapsis
219.4338°
True anomaly
140.65031°
Mean anomaly
137.5338°
Eccentric anomaly
139.104°
Mean motion
2.17599 °/min
Orbital period
165.44 mins
BSTAR
0.03147
Loading maneuver chart data...
Computing Atmospheric mass density...
Loading historical data...
Loading historical data...
Loading historical data...
Loading historical data...
Loading historical data...
Loading historical data...
Loading historical data...

Documentation

Showing up to 5 results
|